Location: Dieppe
(49.9230°N, 1.0775°E)
Time: 19:59:00
(UTC+02:00)

ISS - Pass Details

Date: 23 May 2018
Orbit: 402 x 406 km, 51.6° (Epoch: 20 June)

Event Time Altitude Azimuth Distance (km) Brightness Sun altitude
Rises 03:43:04 0° 288° (WNW) 2,322 -0.1 -15.4°
Reaches altitude 10° 03:45:11 10° 282° (WNW) 1,460 -1.2 -15.2°
Maximum altitude 03:48:20 45° 208° (SSW) 559 -3.6 -15.0°
Drops below altitude 10° 03:51:28 10° 134° (SE) 1,453 -1.2 -14.8°
Sets 03:53:35 0° 128° (SE) 2,309 -0.1 -14.6°
